Location: Omaha
(41.2590°N, 95.9380°W)
Time: 12:03:54
(UTC-05:00)

Vanguard 2 Rocket - All Passes

Search period start: 17 October 2017 00:00
Search period end: 27 October 2017 00:00
Orbit: 555 x 3327 km, 32.9° (Epoch: 16 October)

Date Brightness Start Highest point End Pass type
(mag) Time Alt. Az. Time Alt. Az. Time Alt. Az.
17 Oct - 13:29:56 10° SSW 13:35:14 30° SSE 13:43:27 10° E daylight
17 Oct - 15:40:36 10° WSW 15:48:17 54° S 16:01:54 10° E daylight
17 Oct - 17:52:55 10° W 18:03:15 51° SSW 18:20:04 10° SE daylight
17 Oct - 20:07:14 10° W 20:19:12 32° SSW 20:35:09 10° SSE visible
17 Oct - 22:30:00 10° WSW 22:34:56 11° SW 22:40:06 10° SSW visible
18 Oct - 12:32:36 10° S 12:36:24 18° SE 12:41:29 10° ESE daylight
18 Oct - 14:42:08 10° WSW 14:48:37 47° SSE 14:59:52 10° E daylight
18 Oct - 16:53:54 10° W 17:02:48 54° S 17:18:08 10° ESE daylight
18 Oct - 19:07:13 10° W 19:18:20 38° SSW 19:34:35 10° SE visible
18 Oct - 21:24:54 10° WSW 21:34:10 17° SW 21:44:54 10° S visible
19 Oct - 13:43:55 10° SW 13:49:19 37° SSE 13:58:06 10° E daylight
19 Oct - 15:55:07 10° WSW 16:02:42 53° S 16:16:06 10° ESE daylight
19 Oct - 18:07:42 10° W 18:17:39 43° SSW 18:33:25 10° SE daylight
19 Oct - 20:23:04 10° WSW 20:33:22 23° SSW 20:46:28 10° S visible
20 Oct - 12:46:04 10° SSW 12:50:22 25° SSE 12:56:36 10° E daylight
20 Oct - 14:56:33 10° WSW 15:02:59 50° S 15:14:13 10° ESE daylight
20 Oct - 17:08:35 10° W 17:17:15 46° SSW 17:31:50 10° SE daylight
20 Oct - 19:22:32 10° W 19:32:38 29° SSW 19:46:44 10° SSE visible
21 Oct - 11:48:51 10° S 11:51:38 15° SE 11:55:02 10° ESE daylight
21 Oct - 13:58:12 10° SW 14:03:36 42° SSE 14:12:36 10° E daylight
21 Oct - 16:09:45 10° WSW 16:17:11 48° S 16:30:05 10° ESE daylight
21 Oct - 18:22:45 10° W 18:32:03 33° SSW 18:46:10 10° SSE daylight
21 Oct - 20:40:38 10° WSW 20:47:36 15° SW 20:55:45 10° S visible
22 Oct - 13:00:02 10° SW 13:04:31 32° SSE 13:11:21 10° E daylight
22 Oct - 15:11:07 10° WSW 15:17:26 48° S 15:28:25 10° ESE daylight
22 Oct - 17:23:27 10° W 17:31:43 37° SSW 17:45:06 10° SE daylight
22 Oct - 19:38:43 10° WSW 19:46:59 19° SSW 19:57:39 10° S visible
23 Oct - 12:02:11 10° SSW 12:05:42 22° SSE 12:10:21 10° ESE daylight
23 Oct - 14:12:39 10° WSW 14:18:01 44° S 14:26:58 10° ESE daylight
23 Oct - 16:24:30 10° WSW 16:31:41 41° SSW 16:43:46 10° SE daylight
23 Oct - 18:38:18 10° WSW 18:46:29 24° SSW 18:58:04 10° SSE visible
24 Oct - 11:05:04 10° S 11:06:59 13° SSE 11:09:07 10° ESE daylight
24 Oct - 13:14:19 10° SW 13:18:52 37° SSE 13:25:53 10° ESE daylight
24 Oct - 15:25:47 10° WSW 15:31:57 42° S 15:42:24 10° ESE daylight
24 Oct - 17:38:38 10° WSW 17:46:14 28° SSW 17:57:43 10° SSE daylight
24 Oct - 19:58:03 10° SW 20:01:24 11° SSW 20:05:06 10° SSW visible
25 Oct - 12:16:09 10° SW 12:19:56 28° SSE 12:25:10 10° ESE daylight
25 Oct - 14:27:14 10° WSW 14:32:30 41° S 14:41:12 10° ESE daylight
25 Oct - 16:39:28 10° WSW 16:46:13 31° SSW 16:56:57 10° SE daylight
25 Oct - 18:55:07 10° WSW 19:01:00 15° SSW 19:08:20 10° S visible
26 Oct - 11:18:13 10° SSW 11:21:09 19° SSE 11:24:40 10° ESE daylight
26 Oct - 13:28:48 10° WSW 13:33:19 38° S 13:40:17 10° ESE daylight
26 Oct - 15:40:37 10° WSW 15:46:30 34° SSW 15:56:01 10° SE daylight
26 Oct - 17:54:33 10° WSW 18:00:47 19° SSW 18:09:16 10° SSE daylight
